Hermiston, OR

8:19 PM PDT on March 22, 2017 (GMT -0700)
Hermiston Municipal

Weather History for KHRI - April, 2013

Change the Weather History Date:

Tuesday, April 30, 2013

  Actual Average Record
Temperature  
Mean Temperature 47 °F 55 °F  
Max Temperature 59 °F 70 °F 89 °F (1957)
Min Temperature 37 °F 40 °F 29 °F (1986)
Degree Days  
Heating Degree Days 18    
Moisture  
Dew Point 25 °F    
Average Humidity 47    
Maximum Humidity 68    
Minimum Humidity 23    
Precipitation  
Precipitation 0.00 in 0.03 in 0.48 in (1992)
Month to date precipitation 1.03  
Year to date precipitation 4.42  
Sea Level Pressure  
Sea Level Pressure 30.21 in    
Wind  
Wind Speed 9 mph (SW)    
Max Wind Speed 14 mph    
Max Gust Speed 16 mph    
Visibility 10 miles    
Events      
T = Trace of Precipitation, MM = Missing Value Source: NWS Daily Summary

Daily Weather History Graph

Daily Weather History Graph

Search for Another Location

Airport or City:

Trip Planner

Search our weather history database for the weather conditions in past years. The results will help you decide how hot, cold, wet, or windy it might be!

Date:

Astronomy

Apr. 30, 2013 Rise Set
Actual Time 5:45 AM PDT 8:03 PM PDT
Civil Twilight 5:12 AM PDT 8:36 PM PDT
Nautical Twilight 4:31 AM PDT 9:17 PM PDT
Astronomical Twilight 3:45 AM PDT 10:04 PM PDT
Moon 12:34 AM PDT (4/30) 10:17 AM PDT (4/30)
Length of Visible Light 15h 24m
Length of Day
14h 18m
Waning Gibbous, 69% of the Moon is Illuminated
Apr 30
Waning Gibbous
May 2
Last Quarter
May 9
New
May 17
First Quarter
May 24
Full

Hourly Weather History & Observations

Time (PDT) Temp. Windchill Dew Point Humidity Pressure Visibility Wind Dir Wind Speed Gust Speed Precip Events Conditions
12:53 AM 41.0 °F 35.2 °F 28.0 °F 60% 30.06 in 10.0 mi SW 9.2 mph - N/A   Partly Cloudy
1:53 AM 39.9 °F 33.4 °F 28.0 °F 63% 30.08 in 10.0 mi SW 10.4 mph - N/A   Clear
2:53 AM 37.9 °F 35.5 °F 28.0 °F 68% 30.11 in 10.0 mi SW 3.5 mph - N/A   Clear
3:53 AM 39.0 °F 31.0 °F 28.0 °F 65% 30.12 in 10.0 mi SW 13.8 mph - N/A   Mostly Cloudy
4:53 AM 39.0 °F 31.0 °F 27.0 °F 62% 30.14 in 10.0 mi WSW 13.8 mph - N/A   Mostly Cloudy
5:53 AM 37.9 °F 30.0 °F 27.0 °F 65% 30.15 in 10.0 mi SW 12.7 mph - N/A   Partly Cloudy
6:53 AM 37.9 °F 30.5 °F 26.1 °F 62% 30.17 in 10.0 mi SW 11.5 mph - N/A   Clear
7:53 AM 43.0 °F 36.4 °F 28.0 °F 56% 30.19 in 10.0 mi WSW 12.7 mph - N/A   Overcast
8:53 AM 46.0 °F 40.2 °F 28.0 °F 50% 30.20 in 10.0 mi West 12.7 mph - N/A   Overcast
9:53 AM 48.9 °F - 26.1 °F 41% 30.20 in 10.0 mi West 6.9 mph - N/A   Overcast
10:53 AM 51.1 °F - 21.9 °F 32% 30.21 in 10.0 mi WNW 11.5 mph 16.1 mph N/A   Overcast
11:53 AM 52.0 °F - 21.9 °F 31% 30.21 in 10.0 mi WSW 5.8 mph - N/A   Overcast
12:53 PM 55.0 °F - 19.9 °F 25% 30.21 in 10.0 mi SW 10.4 mph 16.1 mph N/A   Scattered Clouds
1:53 PM 55.0 °F - 21.0 °F 27% 30.21 in 10.0 mi SW 8.1 mph - N/A   Partly Cloudy
2:53 PM 57.9 °F - 19.9 °F 23% 30.22 in 10.0 mi West 10.4 mph 16.1 mph N/A   Partly Cloudy
3:53 PM 57.0 °F - 19.9 °F 24% 30.22 in 10.0 mi WSW 6.9 mph - N/A   Mostly Cloudy
4:53 PM 55.9 °F - 23.0 °F 28% 30.23 in 10.0 mi SW 5.8 mph - N/A   Mostly Cloudy
5:53 PM 54.0 °F - 25.0 °F 33% 30.25 in 10.0 mi SE 4.6 mph - N/A   Overcast
6:53 PM 55.9 °F - 26.1 °F 32% 30.25 in 10.0 mi ESE 5.8 mph - N/A   Mostly Cloudy
7:53 PM 48.9 °F - 30.9 °F 50% 30.27 in 10.0 mi SE 5.8 mph - N/A   Partly Cloudy
8:53 PM 45.0 °F 40.1 °F 26.1 °F 48% 30.30 in 10.0 mi South 9.2 mph - N/A   Clear
9:53 PM 43.0 °F 39.5 °F 27.0 °F 53% 30.32 in 10.0 mi South 5.8 mph - N/A   Clear
10:53 PM 39.0 °F - 27.0 °F 62% 30.35 in 10.0 mi Calm Calm - N/A   Clear
11:53 PM 39.9 °F 34.5 °F 28.0 °F 63% 30.38 in 10.0 mi WNW 8.1 mph - N/A   Clear